RYR77WP LEPA-LEMD

Flight info

Callsign RYR77WP
Flight time 0h 59m
Altitude 31000
Route EPAMA N733 PRADO
Aircraft B738/M-SDE2E3FGHIRWXY/LB1

Departure

Time 2026-04-30 20:43
Airport Palma de Mallorca Airport (LEPA)

Arrival

Time 2026-04-30 21:42
Airport Adolfo Suárez Madrid–Barajas Airport (LEMD)
Time Latitude Longitude Altitude Speed Heading
2026-04-30 20:15 39.54798 2.73601 28 ft 0 kts 58°
2026-04-30 20:34 39.54792 2.73588 29 ft 4 kts 64°
2026-04-30 20:34 39.54789 2.73524 29 ft 4 kts 124°
2026-04-30 20:35 39.54800 2.73508 29 ft 0 kts 149°
2026-04-30 20:37 39.54800 2.73509 29 ft 0 kts 149°
2026-04-30 20:38 39.54784 2.73521 29 ft 6 kts 148°
2026-04-30 20:38 39.54730 2.73563 29 ft 12 kts 148°
2026-04-30 20:38 39.54657 2.73614 29 ft 12 kts 164°
2026-04-30 20:39 39.54524 2.73564 29 ft 11 kts 238°
2026-04-30 20:39 39.54485 2.73479 29 ft 11 kts 239°
2026-04-30 20:39 39.54445 2.73398 29 ft 11 kts 236°
2026-04-30 20:40 39.54371 2.73240 29 ft 10 kts 239°
2026-04-30 20:40 39.54333 2.73166 29 ft 10 kts 237°
2026-04-30 20:40 39.54299 2.73092 29 ft 9 kts 234°
2026-04-30 20:41 39.54219 2.73141 29 ft 9 kts 95°
2026-04-30 20:41 39.54221 2.73220 29 ft 9 kts 89°
2026-04-30 20:41 39.54217 2.73297 29 ft 8 kts 95°
2026-04-30 20:41 39.54221 2.73370 29 ft 8 kts 66°
2026-04-30 20:42 39.54232 2.73395 29 ft 1 kts 57°
2026-04-30 20:42 39.54256 2.73444 29 ft 26 kts 58°
2026-04-30 20:42 39.55040 2.75106 100 ft 177 kts 58°
2026-04-30 20:43 39.55713 2.76514 1002 ft 183 kts 59°
2026-04-30 20:43 39.56365 2.77898 2261 ft 175 kts 60°
2026-04-30 20:43 39.57031 2.79328 2896 ft 197 kts 58°
2026-04-30 20:44 39.58542 2.82520 3901 ft 213 kts 58°
2026-04-30 20:44 39.59316 2.84183 4491 ft 219 kts 57°
2026-04-30 20:44 39.60923 2.87624 5660 ft 228 kts 57°
2026-04-30 20:45 39.62667 2.91138 6745 ft 241 kts 41°
2026-04-30 20:45 39.64162 2.92020 7297 ft 241 kts
2026-04-30 20:45 39.65742 2.91464 7950 ft 239 kts 321°
2026-04-30 20:46 39.67373 2.85571 9835 ft 252 kts 269°
2026-04-30 20:46 39.67305 2.83190 10067 ft 274 kts 266°
2026-04-30 20:47 39.67016 2.77899 10543 ft 317 kts 265°
2026-04-30 20:47 39.66858 2.74950 10811 ft 335 kts 266°
2026-04-30 20:48 39.66560 2.68835 12187 ft 341 kts 266°
2026-04-30 20:48 39.66422 2.65793 12929 ft 343 kts 266°
2026-04-30 20:48 39.66284 2.62697 13648 ft 345 kts 266°
2026-04-30 20:48 39.66147 2.59572 14046 ft 348 kts 266°
2026-04-30 20:49 39.66011 2.56438 14051 ft 349 kts 266°
2026-04-30 20:49 39.65876 2.53307 14098 ft 343 kts 266°
2026-04-30 20:49 39.65742 2.50241 14096 ft 347 kts 266°
2026-04-30 20:50 39.65463 2.43896 15145 ft 354 kts 266°
2026-04-30 20:50 39.65321 2.40697 15808 ft 356 kts 266°
2026-04-30 20:50 39.65178 2.37469 16392 ft 360 kts 266°
2026-04-30 20:50 39.65032 2.34210 16970 ft 364 kts 266°
2026-04-30 20:51 39.64883 2.30916 17553 ft 368 kts 266°
2026-04-30 20:51 39.64578 2.24210 18615 ft 377 kts 266°
2026-04-30 20:51 39.64422 2.20814 19153 ft 378 kts 266°
2026-04-30 20:52 39.64264 2.17395 19699 ft 380 kts 266°
2026-04-30 20:52 39.64105 2.13963 20228 ft 382 kts 266°
2026-04-30 20:52 39.63779 2.07022 21223 ft 388 kts 266°
2026-04-30 20:53 39.63612 2.03520 21710 ft 391 kts 265°
2026-04-30 20:53 39.63444 1.99985 22189 ft 393 kts 265°
2026-04-30 20:53 39.63278 1.96543 22648 ft 396 kts 265°
2026-04-30 20:54 39.62931 1.89367 23560 ft 402 kts 265°
2026-04-30 20:54 39.62753 1.85729 23893 ft 406 kts 265°
2026-04-30 20:54 39.62574 1.82101 24298 ft 407 kts 265°
2026-04-30 20:55 39.62210 1.74775 25105 ft 409 kts 265°
2026-04-30 20:55 39.62023 1.71058 25492 ft 411 kts 265°
2026-04-30 20:55 39.61835 1.67344 25855 ft 413 kts 265°
2026-04-30 20:56 39.61455 1.59879 26583 ft 416 kts 265°
2026-04-30 20:56 39.61263 1.56149 26934 ft 418 kts 265°
2026-04-30 20:56 39.60869 1.48575 27578 ft 422 kts 265°
2026-04-30 20:57 39.60670 1.44766 27893 ft 424 kts 265°
2026-04-30 20:57 39.60470 1.40969 28215 ft 426 kts 265°
2026-04-30 20:57 39.60269 1.37183 28532 ft 427 kts 265°
2026-04-30 20:58 39.59841 1.29452 29152 ft 430 kts 265°
2026-04-30 20:58 39.59620 1.25525 29466 ft 431 kts 265°
2026-04-30 20:58 39.59405 1.21719 29870 ft 430 kts 265°
2026-04-30 20:58 39.59186 1.17865 30327 ft 427 kts 264°
2026-04-30 20:59 39.58751 1.10238 31077 ft 424 kts 264°
2026-04-30 20:59 39.58526 1.06346 31091 ft 429 kts 264°
2026-04-30 21:00 39.57655 0.91396 31116 ft 422 kts 264°
2026-04-30 21:01 39.56980 0.80066 31114 ft 422 kts 264°
2026-04-30 21:02 39.56290 0.68629 31116 ft 423 kts 264°
2026-04-30 21:02 39.55827 0.61086 31117 ft 423 kts 264°
2026-04-30 21:03 39.55357 0.53506 31120 ft 423 kts 264°
2026-04-30 21:03 39.54881 0.45908 31120 ft 423 kts 264°
2026-04-30 21:04 39.54400 0.38285 31123 ft 423 kts 264°
2026-04-30 21:04 39.53671 0.26890 31126 ft 424 kts 263°
2026-04-30 21:05 39.53177 0.19303 31124 ft 423 kts 263°
2026-04-30 21:05 39.52676 0.11695 31129 ft 423 kts 263°
2026-04-30 21:06 39.52173 0.04105 31130 ft 423 kts 263°
2026-04-30 21:06 39.51685 -0.03184 31137 ft 423 kts 263°
2026-04-30 21:07 39.51172 -0.10780 31131 ft 423 kts 263°
2026-04-30 21:07 39.50655 -0.18349 31130 ft 422 kts 263°
2026-04-30 21:08 39.50135 -0.25911 31131 ft 422 kts 263°
2026-04-30 21:08 39.49610 -0.33465 31131 ft 422 kts 263°
2026-04-30 21:09 39.49079 -0.41031 31132 ft 422 kts 263°
2026-04-30 21:09 39.49441 -0.48568 31139 ft 426 kts 281°
2026-04-30 21:10 39.51697 -0.55695 31140 ft 433 kts 296°
2026-04-30 21:10 39.54766 -0.62487 31136 ft 434 kts 296°
2026-04-30 21:11 39.57784 -0.69186 31146 ft 435 kts 296°
2026-04-30 21:11 39.60790 -0.75977 31134 ft 435 kts 296°
2026-04-30 21:12 39.63791 -0.82811 31144 ft 436 kts 296°
2026-04-30 21:12 39.66787 -0.89635 31155 ft 437 kts 296°
2026-04-30 21:13 39.69797 -0.96514 31111 ft 438 kts 296°
2026-04-30 21:13 39.72680 -1.03129 31105 ft 439 kts 296°
2026-04-30 21:14 39.75174 -1.08871 31103 ft 440 kts 296°
2026-04-30 21:14 39.78119 -1.15615 31077 ft 414 kts 296°
2026-04-30 21:15 39.79542 -1.18864 31088 ft 399 kts 295°
2026-04-30 21:15 39.80866 -1.21898 31088 ft 386 kts 295°
2026-04-30 21:15 39.82189 -1.24942 31088 ft 373 kts 295°
2026-04-30 21:15 39.83423 -1.27786 31097 ft 360 kts 295°
2026-04-30 21:16 39.85819 -1.33338 30991 ft 347 kts 295°
2026-04-30 21:16 39.86991 -1.36060 30557 ft 349 kts 295°
2026-04-30 21:16 39.88205 -1.38884 29573 ft 364 kts 296°
2026-04-30 21:17 39.89449 -1.41774 28845 ft 372 kts 296°
2026-04-30 21:17 39.90723 -1.44727 28357 ft 371 kts 296°
2026-04-30 21:17 39.91979 -1.47635 28045 ft 367 kts 296°
2026-04-30 21:17 39.93220 -1.50511 27697 ft 363 kts 296°
2026-04-30 21:18 39.94452 -1.53372 27318 ft 361 kts 296°
2026-04-30 21:18 39.95683 -1.56237 26848 ft 362 kts 296°
2026-04-30 21:18 39.96906 -1.59090 26465 ft 360 kts 296°
2026-04-30 21:18 39.98129 -1.61943 26125 ft 358 kts 296°
2026-04-30 21:19 39.99330 -1.64748 25779 ft 356 kts 296°
2026-04-30 21:19 40.00531 -1.67557 25427 ft 354 kts 296°
2026-04-30 21:19 40.01728 -1.70359 25069 ft 352 kts 296°
2026-04-30 21:19 40.02914 -1.73139 24700 ft 352 kts 296°
2026-04-30 21:20 40.04107 -1.75936 24318 ft 351 kts 296°
2026-04-30 21:20 40.05290 -1.78713 23992 ft 350 kts 296°
2026-04-30 21:20 40.06474 -1.81496 23661 ft 348 kts 296°
2026-04-30 21:20 40.07641 -1.84241 23285 ft 346 kts 296°
2026-04-30 21:21 40.08790 -1.86947 22930 ft 343 kts 296°
2026-04-30 21:21 40.09941 -1.89660 22583 ft 341 kts 296°
2026-04-30 21:21 40.12222 -1.95044 21867 ft 338 kts 296°
2026-04-30 21:22 40.13356 -1.97721 21517 ft 336 kts 296°
2026-04-30 21:22 40.16648 -2.05497 20543 ft 330 kts 296°
2026-04-30 21:23 40.17744 -2.08086 20219 ft 329 kts 296°
2026-04-30 21:23 40.18848 -2.10696 19886 ft 327 kts 296°
2026-04-30 21:23 40.21035 -2.15881 19230 ft 324 kts 296°
2026-04-30 21:24 40.22114 -2.18443 18923 ft 323 kts 296°
2026-04-30 21:24 40.23195 -2.21010 18598 ft 321 kts 296°
2026-04-30 21:24 40.24267 -2.23560 18268 ft 320 kts 296°
2026-04-30 21:24 40.25341 -2.26111 17897 ft 318 kts 296°
2026-04-30 21:25 40.26288 -2.31556 17283 ft 305 kts 268°
2026-04-30 21:25 40.26270 -2.34301 16953 ft 303 kts 267°
2026-04-30 21:25 40.26235 -2.37055 16650 ft 301 kts 267°
2026-04-30 21:26 40.26176 -2.42515 16047 ft 297 kts 268°
2026-04-30 21:26 40.26154 -2.45211 15751 ft 295 kts 268°
2026-04-30 21:27 40.26117 -2.50522 15173 ft 291 kts 268°
2026-04-30 21:27 40.26100 -2.53169 14881 ft 289 kts 268°
2026-04-30 21:27 40.26083 -2.55788 14593 ft 288 kts 267°
2026-04-30 21:28 40.26051 -2.60990 14023 ft 284 kts 268°
2026-04-30 21:28 40.26044 -2.63570 13732 ft 282 kts 268°
2026-04-30 21:28 40.26034 -2.68663 13162 ft 277 kts 268°
2026-04-30 21:29 40.26028 -2.71164 12892 ft 275 kts 268°
2026-04-30 21:29 40.26005 -2.78559 12116 ft 267 kts 268°
2026-04-30 21:30 40.25986 -2.83356 11609 ft 262 kts 268°
2026-04-30 21:31 40.25955 -2.90480 10861 ft 257 kts 269°
2026-04-30 21:31 40.25931 -2.95167 10290 ft 257 kts 269°
2026-04-30 21:32 40.25905 -2.99810 9751 ft 255 kts 269°
2026-04-30 21:32 40.25893 -3.02009 9509 ft 253 kts 269°
2026-04-30 21:32 40.25880 -3.04302 9256 ft 251 kts 269°
2026-04-30 21:32 40.25866 -3.06542 9020 ft 248 kts 269°
2026-04-30 21:33 40.25853 -3.08795 8778 ft 246 kts 269°
2026-04-30 21:33 40.25829 -3.13172 8335 ft 234 kts 270°
2026-04-30 21:33 40.26125 -3.15228 8114 ft 227 kts 287°
2026-04-30 21:34 40.26624 -3.17141 7884 ft 220 kts 287°
2026-04-30 21:34 40.27556 -3.20836 7453 ft 209 kts 287°
2026-04-30 21:34 40.27997 -3.22616 7272 ft 201 kts 287°
2026-04-30 21:35 40.28418 -3.24326 7066 ft 195 kts 286°
2026-04-30 21:35 40.28827 -3.26003 6904 ft 193 kts 286°
2026-04-30 21:35 40.29234 -3.27676 6739 ft 193 kts 286°
2026-04-30 21:35 40.29643 -3.29363 6552 ft 196 kts 286°
2026-04-30 21:36 40.30056 -3.31071 6347 ft 197 kts 286°
2026-04-30 21:36 40.30460 -3.32741 6137 ft 192 kts 287°
2026-04-30 21:37 40.31789 -3.37686 5676 ft 193 kts 308°
2026-04-30 21:37 40.32854 -3.38794 5504 ft 198 kts 325°
2026-04-30 21:37 40.33951 -3.39893 5248 ft 198 kts 321°
2026-04-30 21:37 40.34987 -3.40975 4993 ft 186 kts 322°
2026-04-30 21:38 40.35955 -3.41973 4750 ft 170 kts 323°
2026-04-30 21:38 40.36867 -3.42905 4531 ft 164 kts 323°
2026-04-30 21:38 40.37756 -3.43812 4319 ft 161 kts 322°
2026-04-30 21:38 40.38640 -3.44716 4117 ft 162 kts 322°
2026-04-30 21:39 40.39528 -3.45624 3902 ft 162 kts 322°
2026-04-30 21:39 40.40411 -3.46526 3690 ft 161 kts 322°
2026-04-30 21:39 40.41291 -3.47425 3484 ft 160 kts 323°
2026-04-30 21:39 40.42168 -3.48321 3274 ft 160 kts 323°
2026-04-30 21:40 40.43035 -3.49211 3047 ft 157 kts 322°
2026-04-30 21:40 40.43885 -3.50081 2840 ft 155 kts 323°
2026-04-30 21:40 40.44735 -3.50958 2627 ft 156 kts 323°
2026-04-30 21:40 40.45593 -3.51836 2418 ft 156 kts 323°
2026-04-30 21:41 40.46448 -3.52707 2205 ft 155 kts 322°
2026-04-30 21:41 40.47297 -3.53576 1997 ft 155 kts 323°
2026-04-30 21:41 40.48125 -3.54409 1937 ft 139 kts 322°
2026-04-30 21:41 40.48722 -3.55012 1948 ft 61 kts 322°
2026-04-30 21:42 40.49033 -3.55326 1953 ft 53 kts 322°
2026-04-30 21:42 40.49230 -3.55652 1963 ft 37 kts 294°
2026-04-30 21:42 40.49303 -3.55920 1959 ft 29 kts 276°
2026-04-30 21:42 40.49254 -3.56144 1962 ft 26 kts 192°
2026-04-30 21:43 40.49080 -3.56131 1962 ft 25 kts 189°
2026-04-30 21:43 40.48914 -3.56139 1958 ft 23 kts 180°
2026-04-30 21:43 40.48771 -3.56186 1959 ft 22 kts 250°
2026-04-30 21:43 40.48769 -3.56388 1965 ft 22 kts 269°
2026-04-30 21:44 40.48767 -3.56578 1974 ft 19 kts 269°
2026-04-30 21:44 40.48766 -3.56750 1975 ft 19 kts 271°
2026-04-30 21:44 40.48766 -3.56916 1979 ft 18 kts 270°
2026-04-30 21:44 40.48764 -3.57077 1982 ft 17 kts 269°
2026-04-30 21:45 40.48765 -3.57231 1986 ft 17 kts 269°
2026-04-30 21:45 40.48764 -3.57380 1986 ft 16 kts 269°
2026-04-30 21:45 40.48763 -3.57523 1989 ft 13 kts 270°
2026-04-30 21:45 40.48763 -3.57597 1990 ft 3 kts 270°
2026-04-30 21:46 40.48763 -3.57609 1990 ft 0 kts 270°
2026-04-30 21:46 40.48763 -3.57613 1990 ft 1 kts 270°
2026-04-30 21:46 40.48764 -3.57648 1990 ft 7 kts 270°
2026-04-30 21:46 40.48764 -3.57729 1991 ft 11 kts 270°
2026-04-30 21:47 40.48763 -3.57759 1992 ft 3 kts 268°
2026-04-30 21:47 40.48763 -3.57775 1992 ft 1 kts 268°
2026-04-30 21:47 40.48763 -3.57780 1992 ft 1 kts 268°
2026-04-30 21:47 40.48762 -3.57808 1993 ft 4 kts 268°
2026-04-30 21:48 40.48760 -3.57855 1995 ft 6 kts 268°
2026-04-30 21:48 40.48734 -3.57917 1997 ft 10 kts 207°
2026-04-30 21:48 40.48649 -3.57926 1998 ft 15 kts 178°
2026-04-30 21:48 40.48530 -3.57871 1993 ft 21 kts 150°
2026-04-30 21:49 40.48396 -3.57771 1992 ft 22 kts 146°
2026-04-30 21:49 40.48295 -3.57672 1995 ft 16 kts 142°
2026-04-30 21:49 40.48206 -3.57582 1997 ft 16 kts 144°
2026-04-30 21:49 40.48121 -3.57498 2000 ft 15 kts 142°
2026-04-30 21:50 40.48041 -3.57415 2001 ft 14 kts 142°
2026-04-30 21:50 40.47950 -3.57322 2004 ft 19 kts 142°
2026-04-30 21:50 40.47846 -3.57216 2001 ft 19 kts 142°
2026-04-30 21:50 40.47744 -3.57112 1998 ft 18 kts 142°
2026-04-30 21:51 40.47634 -3.57056 1995 ft 17 kts 205°
2026-04-30 21:51 40.47544 -3.57057 1992 ft 17 kts 104°
2026-04-30 21:51 40.47468 -3.56945 1990 ft 17 kts 141°
2026-04-30 21:51 40.47376 -3.56859 1989 ft 16 kts 155°
2026-04-30 21:52 40.47280 -3.56911 1987 ft 16 kts 203°
2026-04-30 21:52 40.47171 -3.56905 1984 ft 17 kts 155°
2026-04-30 21:52 40.47065 -3.56788 1979 ft 24 kts 135°
2026-04-30 21:52 40.46931 -3.56671 1976 ft 21 kts 163°
2026-04-30 21:53 40.46793 -3.56692 1973 ft 20 kts 189°
2026-04-30 21:53 40.46656 -3.56705 1972 ft 19 kts 183°
2026-04-30 21:53 40.46548 -3.56712 1976 ft 12 kts 182°
2026-04-30 21:53 40.46498 -3.56755 1971 ft 9 kts 261°
2026-04-30 21:54 40.46498 -3.56799 1971 ft 2 kts 272°
2026-04-30 21:54 40.46498 -3.56805 1971 ft 1 kts 272°
2026-04-30 21:54 40.46498 -3.56806 1971 ft 0 kts 272°
2026-04-30 21:55 40.44106 -3.50309 2786 ft 155 kts 323°
2026-04-30 21:55 40.44941 -3.51170 2576 ft 157 kts 323°
2026-04-30 21:55 40.45696 -3.51941 2392 ft 156 kts 323°
2026-04-30 21:56 40.46400 -3.52657 2216 ft 155 kts 322°